Location: Irma
(52.9170°N, 111.2330°W)
Time: 20:54:49
(UTC-07:00)

Amateur Radio Satellites - All Passes

Search period start: 22 November 2017 20:24
Search period end: 23 November 2017 20:24
Location: Irma, 52.9170°N, 111.2330°W

Satellite Date Start Highest point End Downlink Frequencies (MHz)
Time Altitude Azimuth
CUBEBUG 2 22 Nov 20:27:04 20:29:23 14° 273° (W) 20:31:41 437.445
EO-88 22 Nov 20:31:00 20:33:59 25° 64° (ENE) 20:37:01 145.990 - 145.960
Oscar 11 22 Nov 20:31:55 20:36:02 44° 262° (W) 20:40:10 .
Max Valier Satellite 22 Nov 20:36:25 20:39:48 37° 68° (ENE) 20:43:13 145.860
NO-84 22 Nov 20:39:58 20:44:06 64° 207° (SSW) 20:48:21 435.350 FM
nSIGHT-1 22 Nov 20:46:26 20:48:32 16° 145° (SE) 20:50:39 .
STRAND 1 22 Nov 20:51:11 20:56:12 54° 293° (WNW) 21:01:09 437.568
FO-29 22 Nov 20:59:55 21:07:49 65° 101° (E) 21:15:17 435.910
SO-50 22 Nov 21:00:54 21:03:34 16° 112° (ESE) 21:06:16 436.795
ZACube-1 22 Nov 21:05:54 21:08:26 15° 272° (W) 21:10:56 437.345
O/OREOS (USA 219) 22 Nov 21:07:24 21:10:58 22° 41° (NE) 21:14:29 437.305
UNISAT 6 22 Nov 21:15:33 21:18:23 17° 89° (E) 21:21:13 437.425
TIGRISAT 22 Nov 21:19:23 21:22:13 17° 89° (E) 21:25:02 435.000
DELFI C3 22 Nov 21:27:19 21:31:11 47° 261° (W) 21:35:04 145.870
ISS 22 Nov 21:35:26 21:38:17 27° 152° (SSE) 21:41:08 437.550
PRISM 22 Nov 21:42:11 21:43:29 11° 86° (E) 21:44:47 437.425
RS-15 22 Nov 21:57:38 22:09:44 56° 337° (NNW) 22:21:31 29.354- 29.394
ESTCUBE 1 22 Nov 22:00:44 22:04:45 33° 64° (ENE) 22:08:48 437.505/2401.250
EO-88 22 Nov 22:04:12 22:07:31 34° 263° (W) 22:10:53 145.990 - 145.960
Max Valier Satellite 22 Nov 22:10:50 22:13:45 22° 267° (W) 22:16:42 145.860
VELOX 1 22 Nov 22:15:41 22:17:24 12° 50° (NE) 22:19:07 145.980
NO-84 22 Nov 22:17:55 22:20:56 19° 226° (SW) 22:23:57 435.350 FM
nSIGHT-1 22 Nov 22:21:09 22:24:16 49° 163° (SSE) 22:27:24 .
LO-87 22 Nov 22:22:05 22:25:38 59° 72° (ENE) 22:29:11 145.935 - 145.965
STRAND 1 22 Nov 22:32:15 22:34:20 12° 314° (NW) 22:36:24 437.568
SO-50 22 Nov 22:38:52 22:43:21 84° 132° (SE) 22:47:55 436.795
AIST 2D 22 Nov 22:42:50 22:44:53 14° 89° (E) 22:46:54 435.315
FO-29 22 Nov 22:45:17 22:52:28 40° 302° (WNW) 22:59:24 435.910
O/OREOS (USA 219) 22 Nov 22:46:21 22:50:57 81° 242° (WSW) 22:55:29 437.305
UNISAT 6 22 Nov 22:51:19 22:55:35 66° 288° (WNW) 22:59:47 437.425
TIGRISAT 22 Nov 22:55:07 22:59:24 66° 288° (WNW) 23:03:35 435.000
SPROUT 22 Nov 22:55:44 22:59:30 30° 64° (ENE) 23:03:16 437.525
PCSat 22 Nov 22:58:55 23:00:50 12° 102° (ESE) 23:02:46 145.827
ISS 22 Nov 23:11:12 23:14:27 65° 171° (S) 23:17:42 437.550
PRISM 22 Nov 23:15:15 23:19:28 83° 106° (ESE) 23:23:37 437.425
UKube-1 22 Nov 23:33:19 23:34:47 12° 50° (NE) 23:36:13 .
ESTCUBE 1 22 Nov 23:37:21 23:41:31 37° 263° (W) 23:45:44 437.505/2401.250
50 SAT 22 Nov 23:38:10 23:39:27 12° 58° (ENE) 23:40:44 437.505
DUCHIFAT 1 22 Nov 23:41:43 23:44:42 19° 90° (E) 23:47:40 145.980
VELOX 1 22 Nov 23:48:36 23:53:00 63° 71° (ENE) 23:57:26 145.980
EO-79 22 Nov 23:51:05 23:54:45 28° 94° (E) 23:58:23 145.935-145.965
NANOSAT C BR1 22 Nov 23:53:03 23:56:37 26° 94° (E) 00:00:09 145.865
nSIGHT-1 22 Nov 23:57:10 00:00:22 71° 182° (S) 00:03:34 .
LO-87 22 Nov 23:57:19 23:59:23 15° 271° (W) 00:01:28 145.935 - 145.965
POLYITAN 1 23 Nov 00:06:47 00:10:45 39° 98° (E) 00:14:40 437.675
RS-15 23 Nov 00:13:13 00:25:01 49° 10° (N) 00:36:19 29.354- 29.394
AIST 2D 23 Nov 00:14:55 00:18:23 56° 288° (WNW) 00:21:51 435.315
SO-50 23 Nov 00:20:22 00:24:19 29° 335° (NNW) 00:28:20 436.795
BUGSAT 1 23 Nov 00:26:59 00:29:14 14° 88° (E) 00:31:29 437.445
Oscar 19 23 Nov 00:27:07 00:28:26 11° 82° (E) 00:29:44 437.125/150
O/OREOS (USA 219) 23 Nov 00:27:37 00:29:35 13° 262° (W) 00:31:32 437.305
DX 1 23 Nov 00:28:03 00:32:11 43° 66° (ENE) 00:36:21 434.975-435.025
UNISAT 6 23 Nov 00:30:01 00:31:29 12° 309° (NW) 00:32:57 437.425
QB50P2 23 Nov 00:30:10 00:34:23 72° 102° (ESE) 00:38:34 145.880/145.840
SPROUT 23 Nov 00:31:19 00:35:19 37° 263° (W) 00:39:20 437.525
FO-29 23 Nov 00:31:37 00:35:30 15° 325° (NW) 00:39:22 435.910
TIGRISAT 23 Nov 00:33:50 00:35:16 11° 309° (NW) 00:36:42 435.000
PCSat 23 Nov 00:37:50 00:43:09 60° 122° (ESE) 00:48:30 145.827
ISS 23 Nov 00:47:35 00:50:50 61° 191° (S) 00:54:03 437.550
PRISM 23 Nov 00:51:38 00:54:10 16° 304° (NW) 00:56:42 437.425
UKube-1 23 Nov 01:05:41 01:09:58 62° 70° (ENE) 01:14:16 .
Gurwin Techsat 1B 23 Nov 01:06:30 01:10:08 18° 88° (E) 01:13:44 435.225
50 SAT 23 Nov 01:07:50 01:11:04 72° 256° (WSW) 01:14:20 437.505
BEESAT 23 Nov 01:11:54 01:15:05 18° 54° (NE) 01:18:17 436.000
MOZHAYETS 4 23 Nov 01:15:56 01:19:19 21° 58° (ENE) 01:22:41
DUCHIFAT 1 23 Nov 01:16:37 01:20:44 58° 289° (WNW) 01:24:48 145.980
ITUPSAT 1 23 Nov 01:22:32 01:26:05 21° 56° (NE) 01:29:38 437.325
VELOX 1 23 Nov 01:26:38 01:29:51 19° 270° (W) 01:33:06 145.980
EO-79 23 Nov 01:26:42 01:30:36 38° 294° (WNW) 01:34:29 145.935-145.965
NANOSAT C BR1 23 Nov 01:28:31 01:32:27 40° 293° (WNW) 01:36:22 145.865
nSIGHT-1 23 Nov 01:33:24 01:36:24 36° 202° (SSW) 01:39:22 .
CUBESAT XI-V 23 Nov 01:35:53 01:36:42 10° 48° (NE) 01:37:31 437.345
POLYITAN 1 23 Nov 01:42:48 01:46:25 28° 297° (WNW) 01:50:01 437.675
BUGSAT 1 23 Nov 02:01:03 02:05:06 72° 287° (WNW) 02:09:06 437.445
AO-7 23 Nov 02:01:23 02:04:55 13° 79° (E) 02:08:27 .
SO-50 23 Nov 02:02:49 02:06:06 19° 359° (N) 02:09:26 436.795
Oscar 19 23 Nov 02:03:40 02:08:48 63° 102° (ESE) 02:13:56 437.125/150
DX 1 23 Nov 02:04:46 02:08:31 28° 266° (W) 02:12:19 434.975-435.025
QB50P2 23 Nov 02:06:53 02:09:42 18° 303° (WNW) 02:12:31 145.880/145.840
BEESAT 3 23 Nov 02:10:54 02:13:50 20° 116° (ESE) 02:16:47 437.485
PCSat 23 Nov 02:21:48 02:26:51 38° 324° (NW) 02:31:57 145.827
ISS 23 Nov 02:24:15 02:26:56 23° 211° (SSW) 02:29:36 437.550
RS-15 23 Nov 02:27:15 02:39:25 78° 41° (NE) 02:50:55 29.354- 29.394
UKube-1 23 Nov 02:43:17 02:46:22 19° 269° (W) 02:49:29 .
Gurwin Techsat 1B 23 Nov 02:45:25 02:50:47 85° 288° (WNW) 02:56:07 435.225
BEESAT 23 Nov 02:47:29 02:52:16 88° 251° (WSW) 02:57:05 436.000
MOZHAYETS 4 23 Nov 02:51:30 02:56:03 68° 258° (WSW) 03:00:36
KKS-1 23 Nov 02:53:55 02:56:18 14° 52° (NE) 02:58:42 437.445
DUCHIFAT 1 23 Nov 02:55:05 02:55:32 10° 310° (NW) 02:55:59 145.980
M-CUBED/EXP-1 PRIME 23 Nov 02:58:19 03:02:24 32° 101° (ESE) 03:06:33 437.505
ITUPSAT 1 23 Nov 02:58:40 03:03:27 73° 256° (WSW) 03:08:14 437.325
CUBESAT XI-V 23 Nov 03:08:36 03:13:03 51° 69° (ENE) 03:17:33 437.345
nSIGHT-1 23 Nov 03:11:24 03:11:56 10° 221° (SW) 03:12:27 .
STARS 23 Nov 03:14:05 03:14:42 10° 48° (NE) 03:15:19 437.465
BEESAT 2 23 Nov 03:26:37 03:30:13 32° 121° (ESE) 03:33:50 435.950
BUGSAT 1 23 Nov 03:38:17 03:39:44 12° 307° (NW) 03:41:10 437.445
Oscar 19 23 Nov 03:43:33 03:47:47 26° 302° (WNW) 03:52:00 437.125/150
SO-50 23 Nov 03:43:58 03:47:56 27° 24° (NNE) 03:51:56 436.795
BEESAT 3 23 Nov 03:46:59 03:50:59 70° 316° (NW) 03:55:00 437.485
DOVE 4 23 Nov 03:49:26 03:50:12 10° 79° (E) 03:50:57 437.250
AO-7 23 Nov 03:51:35 03:59:46 54° 102° (ESE) 04:07:55 .
AO-85 23 Nov 03:56:25 03:59:39 25° 118° (ESE) 04:03:02 145.980
ITAMSAT 1 23 Nov 04:00:44 04:05:48 48° 100° (E) 04:10:49 435.822/435.867
PCSat 23 Nov 04:07:50 04:11:45 20° 349° (N) 04:15:40 145.827
Gurwin Techsat 1B 23 Nov 04:26:22 04:30:02 19° 308° (NW) 04:33:41 435.225
KKS-1 23 Nov 04:27:40 04:32:08 77° 73° (ENE) 04:36:40 437.445
BEESAT 23 Nov 04:28:10 04:30:45 14° 273° (W) 04:33:22 436.000
M-CUBED/EXP-1 PRIME 23 Nov 04:32:35 04:36:51 43° 299° (WNW) 04:41:14 437.505
MOZHAYETS 4 23 Nov 04:33:40 04:34:06 10° 277° (W) 04:34:31
RS-15 23 Nov 04:40:17 04:51:09 44° 249° (WSW) 05:01:30 29.354- 29.394
ITUPSAT 1 23 Nov 04:40:24 04:42:08 12° 275° (W) 04:43:53 437.325
YUBILEINY 23 Nov 04:43:22 04:51:06 37° 82° (E) 04:58:52 435.215
STARS 23 Nov 04:45:47 04:50:05 52° 68° (ENE) 04:54:25 437.465
CUBESAT XI-V 23 Nov 04:46:55 04:50:42 25° 268° (W) 04:54:32 437.345
STRAND 1 23 Nov 04:57:39 05:00:39 16° 50° (NE) 05:03:39 437.568
BEESAT 2 23 Nov 05:03:54 05:07:50 47° 322° (NW) 05:11:47 435.950
XW-2D 23 Nov 05:16:28 05:17:20 11° 86° (E) 05:18:11 145.860 - 145.880
DOVE 4 23 Nov 05:23:50 05:29:02 60° 100° (E) 05:33:58 437.250
SO-50 23 Nov 05:24:20 05:28:59 85° 45° (NE) 05:33:41 436.795
BEESAT 3 23 Nov 05:26:02 05:29:10 21° 338° (NNW) 05:32:18 437.485
XW-2B 23 Nov 05:30:18 05:32:25 14° 88° (E) 05:34:32 145.730 - 145.750
AO-85 23 Nov 05:35:49 05:39:44 56° 320° (NW) 05:43:55 145.980
FO-29 23 Nov 05:36:00 05:40:47 19° 41° (NE) 05:45:46 435.910
NUDT-PHONESAT 23 Nov 05:36:07 05:37:25 11° 87° (E) 05:38:43 437.300
ITAMSAT 1 23 Nov 05:40:30 05:45:08 33° 300° (WNW) 05:49:44 435.822/435.867
AO-7 23 Nov 05:44:37 05:52:32 50° 305° (NW) 06:00:28 .
CUTE-I 23 Nov 05:48:52 05:53:03 23° 90° (E) 05:57:13 437.470
PCSat 23 Nov 05:53:00 05:57:06 21° 15° (NNE) 06:01:10 145.827
XW-2C 23 Nov 05:55:15 05:58:27 25° 94° (E) 06:01:39 145.795 - 145.815
LilacSat-2 23 Nov 05:59:56 06:03:21 30° 95° (E) 06:06:45 437.200
XW-2F 23 Nov 06:03:44 06:07:04 28° 95° (E) 06:10:23 145.980 - 146.000
KKS-1 23 Nov 06:06:27 06:09:15 16° 272° (W) 06:12:05 437.445
M-CUBED/EXP-1 PRIME 23 Nov 06:09:25 06:10:16 10° 319° (NW) 06:11:07 437.505
STARS 23 Nov 06:23:10 06:26:43 23° 268° (W) 06:30:16 437.465
KAITUO 1B 23 Nov 06:27:31 06:31:05 39° 98° (E) 06:34:39 145.475/437.950
STRAND 1 23 Nov 06:33:52 06:39:00 71° 70° (ENE) 06:44:09 437.568
CUBEBUG 2 23 Nov 06:34:10 06:35:39 12° 85° (E) 06:37:08 437.445
YUBILEINY 23 Nov 06:38:41 06:47:24 67° 286° (WNW) 06:56:15 435.215
BEESAT 2 23 Nov 06:43:33 06:46:26 18° 344° (NNW) 06:49:21 435.950
XW-2D 23 Nov 06:48:16 06:52:05 90° 76° (ENE) 06:55:55 145.860 - 145.880
CUTE 1.7 + AOD 2 23 Nov 06:48:51 06:52:28 26° 93° (E) 06:56:05 437.475
DOVE 4 23 Nov 07:01:58 07:06:21 27° 301° (WNW) 07:10:34 437.250
XW-2B 23 Nov 07:03:13 07:07:01 67° 287° (WNW) 07:10:49 145.730 - 145.750
SO-50 23 Nov 07:05:37 07:08:56 20° 245° (WSW) 07:12:17 436.795
BEESAT 3 23 Nov 07:05:39 07:08:02 15° 2° (N) 07:10:24 437.485
NUDT-PHONESAT 23 Nov 07:08:03 07:11:47 81° 285° (WNW) 07:15:30 437.300
HO-68 23 Nov 07:14:02 07:20:58 47° 99° (E) 07:27:49 435.675
SEEDS 23 Nov 07:14:44 07:18:29 29° 94° (E) 07:22:13 437.485
AAUSAT CUBESAT 2 23 Nov 07:15:17 07:17:46 15° 88° (E) 07:20:14 437.432
FO-29 23 Nov 07:17:25 07:24:14 56° 64° (ENE) 07:31:44 435.910
AO-85 23 Nov 07:17:51 07:21:01 21° 344° (NNW) 07:24:20 145.980
UWE-3 23 Nov 07:24:50 07:28:02 21° 91° (E) 07:31:13 435.000/436.395/437.385
CUTE-I 23 Nov 07:28:16 07:33:38 70° 290° (WNW) 07:38:57 437.470
XW-2C 23 Nov 07:29:12 07:32:43 36° 292° (WNW) 07:36:14 145.795 - 145.815
LilacSat-2 23 Nov 07:34:12 07:37:37 31° 294° (WNW) 07:41:02 437.200
PCSat 23 Nov 07:36:33 07:41:48 46° 40° (NE) 07:47:01 145.827
XW-2F 23 Nov 07:37:47 07:41:11 32° 294° (WNW) 07:44:35 145.980 - 146.000
AO-7 23 Nov 07:38:04 07:43:31 20° 329° (NNW) 07:48:58 .
XW-2A 23 Nov 07:54:08 07:57:14 33° 97° (E) 08:00:19 145.665 - 145.685
AO-73 23 Nov 07:59:20 08:02:40 23° 92° (E) 08:05:59 145.935
KAITUO 1B 23 Nov 08:01:50 08:04:54 24° 297° (WNW) 08:07:57 145.475/437.950
CUBEBUG 2 23 Nov 08:08:46 08:13:00 88° 105° (ESE) 08:17:08 437.445
Oscar 11 23 Nov 08:13:02 08:16:31 23° 92° (E) 08:19:58 .
STRAND 1 23 Nov 08:14:49 08:18:42 21° 270° (W) 08:22:37 437.568
UNISAT 6 23 Nov 08:19:28 08:23:28 32° 64° (ENE) 08:27:25 437.425
BEESAT 2 23 Nov 08:22:59 08:25:35 16° 8° (N) 08:28:10 435.950
TIGRISAT 23 Nov 08:23:09 08:27:09 32° 64° (ENE) 08:31:06 435.000
XW-2D 23 Nov 08:23:57 08:25:41 13° 304° (WNW) 08:27:25 145.860 - 145.880
CUTE 1.7 + AOD 2 23 Nov 08:24:24 08:28:28 43° 292° (WNW) 08:32:31 437.475
PRISM 23 Nov 08:36:04 08:39:04 20° 58° (ENE) 08:42:05 437.425
YUBILEINY 23 Nov 08:39:53 08:46:15 21° 313° (NW) 08:52:41 435.215
BEESAT 3 23 Nov 08:43:34 08:46:51 24° 25° (NNE) 08:50:06 437.485
NUDT-PHONESAT 23 Nov 08:43:52 08:45:00 11° 305° (NW) 08:46:08 437.300
ZACube-1 23 Nov 08:45:27 08:49:36 69° 102° (ESE) 08:53:45 437.345
AAUSAT CUBESAT 2 23 Nov 08:49:31 08:53:43 74° 288° (WNW) 08:57:53 437.432
SEEDS 23 Nov 08:50:18 08:54:14 37° 293° (WNW) 08:58:10 437.485
DELFI C3 23 Nov 08:58:48 09:01:13 15° 88° (E) 09:03:35 145.870
AO-85 23 Nov 08:59:50 09:02:52 18° 9° (N) 09:06:04 145.980
UWE-3 23 Nov 09:00:45 09:04:47 49° 291° (WNW) 09:08:47 435.000/436.395/437.385
HO-68 23 Nov 09:01:56 09:08:47 49° 300° (WNW) 09:15:36 435.675
FO-29 23 Nov 09:02:59 09:09:31 42° 267° (W) 09:16:44 435.910
CUTE-I 23 Nov 09:09:35 09:12:49 16° 311° (NW) 09:16:03 437.470
PCSat 23 Nov 09:20:06 09:25:16 46° 242° (WSW) 09:30:24 145.827
AIST 2D 23 Nov 09:23:00 09:24:59 15° 60° (ENE) 09:26:59 435.315
XW-2A 23 Nov 09:27:08 09:29:48 22° 296° (WNW) 09:32:28 145.665 - 145.685
EO-88 23 Nov 09:27:16 09:29:18 14° 89° (E) 09:31:20 145.990 - 145.960
AO-7 23 Nov 09:30:34 09:33:10 12° 356° (N) 09:35:45 .
POLYITAN 1 23 Nov 09:32:32 09:33:49 11° 52° (NE) 09:35:06 437.675
Max Valier Satellite 23 Nov 09:33:55 09:36:51 22° 93° (E) 09:39:48 145.860
AO-73 23 Nov 09:35:10 09:39:08 45° 291° (WNW) 09:43:06 145.935
CUBEBUG 2 23 Nov 09:46:42 09:49:01 15° 305° (NW) 09:51:19 437.445
Oscar 11 23 Nov 09:48:43 09:52:55 50° 291° (WNW) 09:57:05 .
QB50P2 23 Nov 09:54:09 09:57:02 18° 58° (ENE) 09:59:55 145.880/145.840
UNISAT 6 23 Nov 09:55:56 10:00:08 38° 263° (W) 10:04:18 437.425
TIGRISAT 23 Nov 09:59:35 10:03:48 38° 263° (W) 10:07:57 435.000
BEESAT 2 23 Nov 10:00:46 10:04:26 31° 31° (NNE) 10:08:04 435.950
PRISM 23 Nov 10:09:50 10:13:56 62° 258° (WSW) 10:18:06 437.425
BEESAT 3 23 Nov 10:20:53 10:24:54 89° 47° (NE) 10:28:50 437.485
ZACube-1 23 Nov 10:22:40 10:25:27 18° 302° (WNW) 10:28:15 437.345
AAUSAT CUBESAT 2 23 Nov 10:26:41 10:28:26 12° 306° (NW) 10:30:12 437.432
DELFI C3 23 Nov 10:32:24 10:36:24 68° 287° (WNW) 10:40:22 145.870
DUCHIFAT 1 23 Nov 10:38:41 10:42:23 30° 64° (ENE) 10:46:05 145.980
AO-85 23 Nov 10:40:19 10:44:26 35° 32° (NNE) 10:48:51 145.980
EO-79 23 Nov 10:48:44 10:52:47 46° 68° (ENE) 10:56:51 145.935-145.965
NANOSAT C BR1 23 Nov 10:50:21 10:54:20 43° 68° (ENE) 10:58:20 145.865
HO-68 23 Nov 10:50:49 10:54:58 17° 323° (NW) 10:59:06 435.675
AIST 2D 23 Nov 10:54:19 10:57:44 61° 258° (WSW) 11:01:13 435.315
Gurwin Techsat 1B 23 Nov 10:57:18 10:59:22 12° 45° (NE) 11:01:27 435.225
EO-88 23 Nov 10:59:42 11:03:21 62° 287° (WNW) 11:06:57 145.990 - 145.960
POLYITAN 1 23 Nov 11:04:36 11:08:48 64° 72° (ENE) 11:12:59 437.675
Max Valier Satellite 23 Nov 11:07:23 11:10:49 38° 292° (WNW) 11:14:14 145.860
LO-87 23 Nov 11:16:13 11:19:24 30° 96° (E) 11:22:33 145.935 - 145.965
AO-7 23 Nov 11:18:03 11:22:37 16° 24° (NNE) 11:27:13 .
BUGSAT 1 23 Nov 11:21:40 11:25:03 24° 62° (ENE) 11:28:25 437.445
ESTCUBE 1 23 Nov 11:23:15 11:27:17 30° 95° (E) 11:31:18 437.505/2401.250
QB50P2 23 Nov 11:28:07 11:32:22 72° 257° (WSW) 11:36:37 145.880/145.840
BEESAT 2 23 Nov 11:38:24 11:42:25 57° 232° (SW) 11:46:20 435.950
Oscar 19 23 Nov 11:48:17 11:52:44 31° 60° (ENE) 11:57:13 437.125/150
BEESAT 3 23 Nov 11:59:37 12:01:51 15° 247° (WSW) 12:04:04 437.485
DELFI C3 23 Nov 12:09:19 12:10:23 11° 307° (NW) 12:11:27 145.870
SPROUT 23 Nov 12:10:40 12:14:10 24° 93° (E) 12:17:38 437.525
DUCHIFAT 1 23 Nov 12:14:05 12:17:59 36° 263° (W) 12:21:53 145.980
M-CUBED/EXP-1 PRIME 23 Nov 12:16:59 12:19:23 16° 47° (NE) 12:21:53 437.505
AO-85 23 Nov 12:20:36 12:25:07 61° 232° (SW) 12:29:59 145.980
EO-79 23 Nov 12:25:17 12:28:45 24° 267° (W) 12:32:14 145.935-145.965
NANOSAT C BR1 23 Nov 12:26:40 12:30:12 26° 266° (W) 12:33:45 145.865
Gurwin Techsat 1B 23 Nov 12:33:05 12:38:12 50° 66° (ENE) 12:43:20 435.225
POLYITAN 1 23 Nov 12:42:07 12:45:00 18° 270° (W) 12:47:53 437.675
LO-87 23 Nov 12:49:44 12:52:44 26° 295° (WNW) 12:55:44 145.935 - 145.965
BUGSAT 1 23 Nov 12:56:09 13:00:12 47° 260° (W) 13:04:13 437.445
ESTCUBE 1 23 Nov 12:59:56 13:04:12 41° 294° (WNW) 13:08:26 437.505/2401.250
O/OREOS (USA 219) 23 Nov 13:04:42 13:08:53 35° 108° (ESE) 13:13:05 437.305
AO-7 23 Nov 13:05:47 13:13:12 38° 49° (NE) 13:20:39 .
VELOX 1 23 Nov 13:08:39 13:13:03 54° 101° (E) 13:17:24 145.980
Oscar 19 23 Nov 13:26:54 13:31:53 51° 260° (W) 13:36:54 437.125/150
DX 1 23 Nov 13:46:00 13:50:00 33° 96° (E) 13:53:58 434.975-435.025
SPROUT 23 Nov 13:46:11 13:50:16 46° 292° (WNW) 13:54:19 437.525
ITAMSAT 1 23 Nov 13:46:35 13:50:54 27° 57° (ENE) 13:55:14 435.822/435.867
M-CUBED/EXP-1 PRIME 23 Nov 13:49:25 13:53:09 86° 245° (WSW) 13:57:15 437.505
50 SAT 23 Nov 13:51:05 13:54:08 36° 99° (E) 13:57:09 437.505
AO-85 23 Nov 14:03:03 14:04:47 12° 250° (WSW) 14:06:32 145.980
Gurwin Techsat 1B 23 Nov 14:13:41 14:18:22 31° 266° (W) 14:23:06 435.225
UKube-1 23 Nov 14:22:21 14:26:34 47° 100° (E) 14:30:45 .
MOZHAYETS 4 23 Nov 14:40:55 14:44:10 19° 89° (E) 14:47:24
BEESAT 23 Nov 14:42:32 14:45:20 15° 87° (E) 14:48:06 436.000
O/OREOS (USA 219) 23 Nov 14:43:55 14:48:16 40° 309° (NW) 14:52:38 437.305
YUBILEINY 23 Nov 14:44:33 14:51:54 28° 54° (NE) 14:59:12 435.215
VELOX 1 23 Nov 14:45:37 14:49:13 24° 300° (WNW) 14:52:48 145.980
ITUPSAT 1 23 Nov 14:53:41 14:57:01 19° 89° (E) 15:00:21 437.325
AO-7 23 Nov 14:57:13 15:05:29 74° 252° (WSW) 15:13:52 .
DOVE 4 23 Nov 14:58:24 15:02:22 22° 56° (NE) 15:06:24 437.250
NO-84 23 Nov 15:12:38 15:16:01 32° 142° (SE) 15:19:37 435.350 FM
DX 1 23 Nov 15:22:11 15:26:13 36° 296° (WNW) 15:30:12 434.975-435.025
50 SAT 23 Nov 15:23:39 15:26:01 19° 297° (WNW) 15:28:20 437.505
ITAMSAT 1 23 Nov 15:24:50 15:30:02 63° 258° (WSW) 15:35:15 435.822/435.867
M-CUBED/EXP-1 PRIME 23 Nov 15:27:18 15:28:20 11° 270° (W) 15:29:22 437.505
CUTE-I 23 Nov 15:39:35 15:42:32 15° 48° (NE) 15:45:29 437.470
UKube-1 23 Nov 15:58:47 16:02:23 26° 299° (WNW) 16:05:58 .
XW-2D 23 Nov 16:02:56 16:04:52 14° 57° (ENE) 16:06:50 145.860 - 145.880
HO-68 23 Nov 16:04:13 16:09:12 21° 42° (NE) 16:14:09 435.675
XW-2B 23 Nov 16:17:09 16:19:41 18° 60° (ENE) 16:22:14 145.730 - 145.750
MOZHAYETS 4 23 Nov 16:17:14 16:21:47 67° 289° (WNW) 16:26:19
BEESAT 23 Nov 16:18:59 16:23:47 87° 285° (WNW) 16:28:32 436.000
NUDT-PHONESAT 23 Nov 16:20:39 16:22:36 14° 58° (ENE) 16:24:34 437.300
O/OREOS (USA 219) 23 Nov 16:27:09 16:28:59 12° 332° (NNW) 16:30:50 437.305
ITUPSAT 1 23 Nov 16:30:36 16:35:22 72° 289° (WNW) 16:40:07 437.325
DOVE 4 23 Nov 16:34:17 16:39:28 79° 256° (WSW) 16:44:49 437.250
CUBESAT XI-V 23 Nov 16:35:51 16:40:29 55° 100° (E) 16:45:06 437.345
YUBILEINY 23 Nov 16:41:10 16:50:06 87° 77° (ENE) 16:58:58 435.215
XW-2C 23 Nov 16:42:01 16:45:17 29° 66° (ENE) 16:48:35 145.795 - 145.815
LilacSat-2 23 Nov 16:47:18 16:50:45 35° 67° (ENE) 16:54:13 437.200
NO-84 23 Nov 16:49:12 16:53:06 85° 345° (NNW) 16:57:16 435.350 FM
XW-2F 23 Nov 16:49:59 16:53:20 32° 67° (ENE) 16:56:43 145.980 - 146.000
AO-7 23 Nov 16:54:07 16:59:47 20° 275° (W) 17:05:29 .
RS-15 23 Nov 17:01:19 17:09:56 23° 98° (E) 17:18:29 29.354- 29.394
ITAMSAT 1 23 Nov 17:09:05 17:10:33 11° 277° (W) 17:12:02 435.822/435.867
KAITUO 1B 23 Nov 17:12:46 17:16:17 43° 70° (ENE) 17:19:51 145.475/437.950
CUTE-I 23 Nov 17:16:19 17:21:37 63° 69° (ENE) 17:26:57 437.470
XW-2D 23 Nov 17:34:47 17:38:32 79° 258° (WSW) 17:42:18 145.860 - 145.880
CUBEBUG 2 23 Nov 17:36:50 17:40:21 23° 61° (ENE) 17:43:48 437.445
CUTE 1.7 + AOD 2 23 Nov 17:46:56 17:50:50 38° 67° (ENE) 17:54:47 437.475
HO-68 23 Nov 17:48:37 17:55:42 64° 65° (ENE) 18:02:49 435.675
KKS-1 23 Nov 17:48:50 17:53:19 65° 103° (ESE) 17:57:44 437.445
XW-2B 23 Nov 17:49:49 17:53:30 57° 259° (W) 17:57:14 145.730 - 145.750
NUDT-PHONESAT 23 Nov 17:52:19 17:55:58 74° 258° (WSW) 17:59:39 437.300
MOZHAYETS 4 23 Nov 17:56:06 17:58:08 13° 309° (NW) 18:00:10
BEESAT 23 Nov 17:57:52 18:00:55 17° 307° (NW) 18:03:57 436.000
STARS 23 Nov 18:05:05 18:09:17 42° 98° (E) 18:13:26 437.465
ITUPSAT 1 23 Nov 18:09:50 18:12:25 15° 309° (NW) 18:15:00 437.325
AAUSAT CUBESAT 2 23 Nov 18:10:41 18:13:55 22° 61° (ENE) 18:17:10 437.432
SEEDS 23 Nov 18:11:45 18:15:42 43° 68° (ENE) 18:19:43 437.485
ZACube-1 23 Nov 18:12:22 18:15:08 17° 58° (ENE) 18:17:54 437.345
CUBESAT XI-V 23 Nov 18:13:43 18:17:35 26° 300° (WNW) 18:21:25 437.345
DOVE 4 23 Nov 18:15:09 18:18:01 15° 277° (W) 18:20:56 437.250
XW-2C 23 Nov 18:16:07 18:19:26 30° 264° (W) 18:22:49 145.795 - 145.815
LilacSat-2 23 Nov 18:21:56 18:25:06 25° 266° (W) 18:28:18 437.200
XW-2F 23 Nov 18:24:17 18:27:29 27° 266° (W) 18:30:43 145.980 - 146.000
NO-84 23 Nov 18:26:40 18:30:40 65° 3° (N) 18:34:54 435.350 FM
UWE-3 23 Nov 18:27:03 18:31:04 36° 66° (ENE) 18:34:59 435.000/436.395/437.385
XW-2A 23 Nov 18:30:42 18:33:39 29° 67° (ENE) 18:36:36 145.665 - 145.685
YUBILEINY 23 Nov 18:38:55 18:45:52 27° 283° (WNW) 18:52:49 435.215
STRAND 1 23 Nov 18:39:24 18:42:23 15° 86° (E) 18:45:20 437.568
KAITUO 1B 23 Nov 18:47:44 18:50:30 20° 269° (W) 18:53:16 145.475/437.950
CUTE-I 23 Nov 18:57:41 19:02:06 25° 269° (W) 19:06:32 437.470
AO-73 23 Nov 19:00:10 19:04:05 37° 67° (ENE) 19:07:57 145.935
RS-15 23 Nov 19:08:01 19:20:12 69° 123° (ESE) 19:32:12 29.354- 29.394
CUBEBUG 2 23 Nov 19:12:15 19:16:42 56° 260° (W) 19:21:01 437.445
Oscar 11 23 Nov 19:13:15 19:17:11 36° 66° (ENE) 19:21:09 .
CUTE 1.7 + AOD 2 23 Nov 19:23:07 19:26:46 28° 266° (W) 19:30:28 437.475
KKS-1 23 Nov 19:26:07 19:29:28 21° 303° (WNW) 19:32:48 437.445
HO-68 23 Nov 19:37:25 19:43:53 35° 266° (W) 19:50:24 435.675
STARS 23 Nov 19:41:41 19:45:29 29° 298° (WNW) 19:49:16 437.465
AAUSAT CUBESAT 2 23 Nov 19:45:03 19:49:05 51° 260° (W) 19:53:10 437.432
ZACube-1 23 Nov 19:46:42 19:50:59 74° 257° (WSW) 19:55:11 437.345
SEEDS 23 Nov 19:48:05 19:51:34 25° 267° (W) 19:55:05 437.485
DELFI C3 23 Nov 19:49:25 19:52:24 21° 61° (ENE) 19:55:25 145.870
O/OREOS (USA 219) 23 Nov 19:51:19 19:52:32 11° 25° (NNE) 19:53:45 437.305
XW-2A 23 Nov 20:03:40 20:06:23 23° 265° (W) 20:09:08 145.665 - 145.685
UWE-3 23 Nov 20:03:40 20:07:34 31° 265° (W) 20:11:24 435.000/436.395/437.385
NO-84 23 Nov 20:04:02 20:08:12 74° 203° (SSW) 20:12:27 435.350 FM
FO-29 23 Nov 20:05:19 20:12:19 33° 89° (E) 20:18:57 435.910
EO-88 23 Nov 20:10:31 20:12:51 16° 60° (ENE) 20:15:12 145.990 - 145.960
Max Valier Satellite 23 Nov 20:18:15 20:21:17 25° 64° (ENE) 20:24:19 145.860
